Regional Weather Roundup
Issued by NWS Cleveland, OH

Home | Current Version | Previous Version | Text Only | Print | Product List | Glossary Off
Versions: 1 2 3 4 5 6 7 8 9 10 11 12 13 14 15 16 17 18 19 20 21 22 23 24 25 26 27 28 29 30 31 32 33 34 35 36 37 38 39 40 41 42 43 44 45 46 47 48 49 50

000
ASUS41 KCLE 281910
RWRCLE
OHIO REGIONAL WEATHER ROUNDUP
NATIONAL WEATHER SERVICE WILMINGTON, OH
300 PM EDT FRI APR 28 2017

NOTE: "FAIR" INDICATES FEW OR NO CLOUDS BELOW 12,000 FEET WITH NO
SIGNIFICANT WEATHER AND/OR OBSTRUCTIONS TO VISIBILITY.

OHZ001>008-015>018-024>027-034-035-043-044-282000-
   NORTHWEST OHIO

CITY           SKY/WX    TMP DP  RH WIND       PRES   REMARKS
DEFIANCE       CLOUDY    57  43  59 S9        29.99F
FINDLAY        LGT RAIN  60  46  59 S13       30.01R
TOLEDO EXPRESS CLOUDY    59  41  51 S9        30.00S
TOLEDO EXEC    CLOUDY    61  44  53 SW10      30.01S
LIMA           CLOUDY    56  49  77 S9        30.01F
$$

OHZ009>014-019>023-028>033-038-089-282000-
   NORTHEAST OHIO

CITY           SKY/WX    TMP DP  RH WIND       PRES   REMARKS
CLE-HOPKINS    CLOUDY    63  45  51 S13G22    30.04S
CLE-LAKEFRONT  FAIR      63  44  50 S14G23    30.02S
CUY CO. ARPT   PTSUNNY   64  45  48 SW14      30.03S
LORAIN-ELYRIA  CLOUDY    61  43  51 S9        30.02S
ASHTABULA      FAIR      64  44  48 SW10      30.03S
AKRON-CANTON   LGT RAIN  64  47  53 VRB3      30.03F
WOOSTER        FAIR      61  49  64 S8        30.03F
MANSFIELD      CLOUDY    60  47  61 S6        30.03F
YOUNGSTOWN     CLOUDY    65  46  50 S9        30.04R
$$

OHZ042-051>053-060>062-070>072-077>081-282000-
  SOUTHWEST OHIO

CITY           SKY/WX    TMP DP  RH WIND       PRES   REMARKS
CINC-COVINGTON CLOUDY    70  55  59 SE9       29.96F
CINC-LUNKEN    FAIR      71  57  61 E6        29.97F
HAMILTON       FAIR      67  53  61 VRB6      29.98F
DAYTON         CLOUDY    62  49  62 SE8       29.99F
WRIGHT-PAT AFB FAIR      65  50  58 E6        29.98F
DAYTON GENERAL FAIR      64  51  62 E5        29.98F
WILMINGTON     FAIR      68  55  63 VRB5      29.99F
$$

OHZ036-037-039>041-045>050-054>059-063>069-073>076-082>088-282000-
  CENTRAL AND SOUTHEAST OHIO

CITY           SKY/WX    TMP DP  RH WIND       PRES   REMARKS
COLUMBUS       CLOUDY    67  47  48 E6        30.00F
OSU AIRPORT    FAIR      65  47  52 E5        30.00F
BOLTON FIELD   SUNNY     66  48  52 E5        30.00F
RICKENBACK AFB FAIR      67  48  52 E5        29.98F
NEWARK         FAIR      68  43  40 CALM      30.02S
MARION         PTSUNNY   60  46  59 S9        30.02S
LANCASTER      FAIR      74  49  41 CALM      30.00F
ZANESVILLE     FAIR      70  47  43 CALM      30.01F
NEW PHILLY     FAIR      70  44  39 W3        30.03S
$$



USA.gov is the U.S. government's official web portal to all federal, state and local government web resources and services.